EW3309 Weather Reports


Display with metric or nautical units.
time (UTC)temp
F
wind
direction
speed
MPH
gust
MPH
rain 1hr
in
rain 24hr
in
rain mn
in
humidity
%
barometer
mb
20260901031537 73 325 0.0 0.0 0.00 0.00 0.00 73 1011.7
20260901030026 73 304 0.0 0.0 0.00 0.00 0.00 72 1011.4
20260901024525 75 304 0.0 0.0 0.00 0.00 0.00 70 1011.2
20260901023024 76 293 0.0 0.0 0.00 0.00 0.00 68 1011.0
20260901021542 77 265 0.0 0.0 0.00 0.00 0.00 64 1010.8
20260901020023 79 265 0.0 0.0 0.00 0.00 0.00 59 1010.7
20260901014522 80 267 0.0 0.0 0.00 0.00 0.00 56 1010.5
20260901013031 81 282 0.0 0.0 0.00 0.00 0.00 55 1010.4
20260901011521 82 290 0.0 0.0 0.00 0.00 0.00 52 1010.5
20260901010038 83 292 0.0 0.0 0.00 0.00 0.00 51 1010.6
20260901004518 84 291 0.0 0.0 0.00 0.00 0.00 50 1010.6
20260901003026 84 290 0.0 0.0 0.00 0.00 0.00 48 1010.6
20260901001519 84 290 0.0 0.0 0.00 0.00 0.00 48 1010.6
20260901000018 84 240 0.0 0.0 0.00 0.00 0.00 50 1010.7
20260831234518 85 262 0.0 0.0 0.00 0.00 0.00 48 1010.8
20260831233017 85 323 0.0 0.0 0.00 0.00 0.00 48 1010.7
20260831231517 86 289 0.0 0.0 0.00 0.00 0.00 50 1010.8
20260831230016 86 263 0.0 0.0 0.00 0.00 0.00 49 1010.8
20260831224514 86 287 0.0 0.0 0.00 0.00 0.00 47 1011.0
20260831223021 86 279 0.0 0.0 0.00 0.00 0.00 48 1011.0
20260831221515 87 309 0.0 0.0 0.00 0.00 0.00 46 1011.2
20260831220010 88 259 0.0 0.0 0.00 0.00 0.00 47 1011.2
20260831214508 88 288 0.0 0.0 0.00 0.00 0.00 46 1011.0
20260831213006 88 250 0.0 0.0 0.00 0.00 0.00 44 1011.1
20260831211508 88 246 0.0 0.0 0.00 0.00 0.00 45 1011.2
20260831210001 88 298 0.0 0.0 0.00 0.00 0.00 46 1011.4
20260831204600 87 313 0.0 0.0 0.00 0.00 0.00 46 1011.4
20260831203059 88 301 0.0 0.0 0.00 0.00 0.00 47 1011.6
20260831201604 89 288 0.0 0.0 0.00 0.00 0.00 46 1011.7
20260831200059 89 219 0.0 0.0 0.00 0.00 0.00 45 1011.6
20260831194639 89 233 0.0 0.0 0.00 0.00 0.00 46 1011.7
20260831193058 89 279 0.0 0.0 0.00 0.00 0.00 46 1011.7
20260831191556 89 291 0.0 0.0 0.00 0.00 0.00 45 1011.8
20260831184557 88 303 0.0 0.0 0.00 0.00 0.00 46 1011.9
20260831183046 88 232 0.0 0.0 0.00 0.00 0.00 47 1012.0
20260831181547 86 291 0.0 0.0 0.00 0.00 0.00 50 1012.0
20260831180037 83 259 0.0 0.0 0.00 0.00 0.00 55 1011.9
20260831174538 81 220 0.0 0.0 0.00 0.00 0.00 61 1011.9
20260831173028 79 258 0.0 0.0 0.00 0.00 0.00 66 1011.9
20260831171531 77 229 0.0 0.0 0.00 0.00 0.00 70 1011.9
20260831170021 75 217 0.0 0.0 0.00 0.00 0.00 74 1011.9
20260831164515 74 204 0.0 0.0 0.00 0.00 0.00 77 1012.0
20260831163012 73 205 0.0 0.0 0.00 0.00 0.00 80 1011.9
20260831161510 72 224 0.0 0.0 0.00 0.00 0.00 82 1011.9
20260831160007 71 219 0.0 0.0 0.00 0.00 0.00 84 1011.9
20260831154506 71 200 0.0 0.0 0.00 0.00 0.00 85 1012.0
20260831153006 70 203 0.0 0.0 0.00 0.00 0.00 86 1011.9
20260831151501 70 207 0.0 0.0 0.00 0.00 0.00 86 1011.8
20260831150059 70 262 0.0 0.0 0.00 0.00 0.00 86 1011.8
20260831144640 69 263 0.0 0.0 0.00 0.00 0.00 85 1011.7
20260831143100 69 263 0.0 0.0 0.00 0.00 0.00 84 1011.7
20260831141553 70 262 0.0 0.0 0.00 0.00 0.00 84 1011.5
20260831140051 70 262 0.0 0.0 0.00 0.00 0.00 84 1011.3
20260831134549 70 288 0.0 0.0 0.00 0.00 0.00 84 1011.0
20260831133050 70 288 0.0 0.0 0.00 0.00 0.00 84 1010.8
20260831131545 70 288 0.0 0.0 0.00 0.00 0.00 84 1010.7
20260831130045 71 288 0.0 0.0 0.00 0.00 0.00 84 1010.7
20260831124552 71 286 0.0 0.0 0.00 0.00 0.00 84 1010.7
20260831123047 71 286 0.0 0.0 0.00 0.00 0.00 84 1010.7
20260831121547 71 288 0.0 0.0 0.00 0.00 0.00 84 1010.6
20260831120044 71 283 0.0 0.0 0.00 0.00 0.00 84 1010.5
20260831114551 71 282 0.0 0.0 0.00 0.00 0.00 84 1010.7
20260831113042 71 288 0.0 0.0 0.00 0.00 0.00 84 1010.6
20260831111544 71 288 0.0 0.0 0.00 0.00 0.00 85 1010.6
20260831104544 71 311 0.0 0.0 0.00 0.00 0.00 86 1010.7
20260831103038 71 317 0.0 0.0 0.00 0.00 0.00 86 1010.8
20260831101537 71 321 0.0 0.0 0.00 0.00 0.00 87 1010.7
20260831100054 71 321 0.0 0.0 0.00 0.00 0.00 87 1010.7
20260831094534 71 321 0.0 0.0 0.00 0.00 0.00 87 1010.8
20260831093039 71 321 0.0 0.0 0.00 0.00 0.00 88 1010.7
20260831091531 70 321 0.0 0.0 0.00 0.00 0.00 88 1010.8
20260831090029 70 321 0.0 0.0 0.00 0.00 0.00 88 1010.8
20260831084526 70 321 0.0 0.0 0.00 0.00 0.00 87 1011.0
20260831083025 69 321 0.0 0.0 0.00 0.00 0.00 87 1011.0
20260831081524 69 321 0.0 0.0 0.00 0.00 0.00 87 1010.9
20260831080026 69 321 0.0 0.0 0.00 0.00 0.00 87 1011.0
20260831074522 69 321 0.0 0.0 0.00 0.00 0.00 86 1011.0
20260831073033 69 321 0.0 0.0 0.00 0.00 0.00 85 1011.0
20260831071519 69 321 0.0 0.0 0.00 0.00 0.00 85 1011.1
20260831070016 70 321 0.0 0.0 0.00 0.00 0.00 85 1011.0
20260831064519 70 321 0.0 0.0 0.00 0.00 0.00 85 1011.1
20260831063021 70 321 0.0 0.0 0.00 0.00 0.00 85 1011.0
20260831061512 71 321 0.0 0.0 0.00 0.00 0.00 85 1010.9
20260831060012 71 321 0.0 0.0 0.00 0.00 0.00 84 1011.1
20260831054510 71 321 0.0 0.0 0.00 0.00 0.00 84 1010.9
20260831053010 71 321 0.0 0.0 0.00 0.00 0.00 84 1010.8
20260831051509 72 321 0.0 0.0 0.00 0.00 0.00 84 1010.7
20260831050009 72 324 0.0 0.0 0.00 0.00 0.00 83 1010.8
20260831044509 73 323 0.0 0.0 0.00 0.00 0.00 83 1010.7
20260831043007 73 304 0.0 0.0 0.00 0.00 0.00 81 1010.6
20260831041507 74 299 0.0 0.0 0.00 0.00 0.00 80 1010.4
20260831040010 74 279 0.0 0.0 0.00 0.00 0.00 78 1010.3
20260831034506 75 286 0.0 0.0 0.00 0.00 0.00 77 1010.1
20260831033006 76 286 0.0 0.0 0.00 0.00 0.00 75 1009.8